Weather in Pleshanovo

Russia / Orenburg Oblast     52°50′42″N   53°29′20″E
temp.,
°C
wind,
m/s
gust,
m/s
humid.,
%
clouds,
%
prec.,
mm/h
press.,
hPa
HPBL,
m
26 june, sun
sun2623:00+17nnw36861 0.0 1009119
02:00+15nw22910 0.0 101026
05:00+14nnw33910 0.0 101145
08:00+17n23690 0.0 1011257
11:00+21nnw46518 0.0 10121355
14:00+22n685298 0.4 10112211
17:00+20n98475 0.4 10132035
20:00+17nne79625 0.0 1015902
27 june, mon
mon2723:00+12n227617 0.0 101624
02:00+11nw22805 0.0 101720
05:00+10nnw22880 0.0 101717
08:00+13nnw36720 0.0 1018355
11:00+18n45515 0.0 10181222
14:00+20nnw45445 0.0 10171429
17:00+22nw56450 0.0 10151405
20:00+20wnw3662100 0.0 1014323
28 june, tue
tue2823:00+19wsw4106879 0.0 1013280
02:00+16w51390100 1.7 1011370
05:00+16n479567 2.3 1011393
08:00+14nne688218 0.0 1012512
11:00+16n676869 0.0 10131098
14:00+16n79505 0.0 10141737
17:00+14n9105516 0.0 10161519
20:00+11n695916 0.0 10171264
29 june, wed
wed2923:00+9n49685 0.0 1018404
02:00+6nnw36855 0.0 1017132
05:00+5nw34865 0.0 101876
08:00+9nnw4767100 0.0 1018379
11:00+13n575927 0.0 10171181
14:00+13n6763100 0.0 10171300
17:00+14n5763100 0.0 10171335
20:00+14n4764100 0.0 1016680
30 june, thu
thu3023:00+13nw2270100 0.0 101626
02:00+13w357762 0.1 1016119
05:00+9wnw379193 0.1 1015115
08:00+13wnw587698 0.0 1014305
11:00+16wnw6860100 0.0 1013741
14:00+18w7854100 0.1 10111640
17:00+18nw5957100 0.2 10101459
20:00+16nw596711 0.7 1008527